Regional Weather Roundup
Issued by NWS

Home | Current Version | Previous Version | Text Only | Print | Product List | Glossary On
Versions: 1 2 3 4 5 6 7 8 9 10 11 12 13 14 15 16 17 18 19 20 21 22 23 24 25 26 27 28 29 30 31 32 33 34 35 36 37 38 39 40 41 42 43 44 45 46 47 48 49 50
460
ASUS42 KTBW 260918
RWRFL
FLORIDA REGIONAL WEATHER ROUNDUP
NATIONAL WEATHER SERVICE TAMPA BAY RUSKIN FL
500 AM EDT TUE SEP 26 2017

NOTE: "FAIR" INDICATES FEW OR NO CLOUDS BELOW 12,000 FEET WITH NO
SIGNIFICANT WEATHER AND/OR OBSTRUCTIONS TO VISIBILITY.

FLZ001>010-012>015-112-114-115-261000-
PANHANDLE FLORIDA

CITY           SKY/WX    TMP DP  RH WIND       PRES   REMARKS
PENSACOLA      CLEAR     76  72  87 NE5       29.89F
PENSACOLA NAS  CLEAR     72  71  97 CALM      29.89S
MILTON NAS     CLEAR     69  69 100 CALM      29.90
CRESTVIEW      PTCLDY    70  68  93 CALM      29.91S FOG
DUKE FIELD     FAIR      70  69  96 CALM      29.90S
VALPARAISO     PTCLDY    72  70  93 N3        29.89S
MARY ESTHER    CLEAR     71  71 100 N5        29.88S
PANAMA CITY    FAIR      71  69  93 CALM      29.89R
TYNDALL AFB    MOCLDY    72  71  98 N3        29.89S FOG
APALACHICOLA   CLEAR     72  72 100 CALM      29.88S

STATION/POSITION SKY/WX   TEMP    WIND        PRES    WAVE   SWELL
                          AIR SEA DIR/SP/G            HT/PER HT/PER
                          (F)     (DEG/KT/KT) (MB)    (FT/S) (FT/S)
30.1N   87.6W              80 82  130/  6/  8 1011.8F   1/ 5   2/ 5
29.2N   88.2W              82 83  160/  8/ 10 1011.6
28.8N   86.0W              81 82  120/  4/  4 1011.7R   1/ 4   2/ 4
PANAMA CITY BEAC           75      20/  5/  6 1012.7R
TOWER C                    79     350/  5/  6 1012.5S
28.5N   84.5W              80 82     CALM     1011.6R   1

$$
FLZ011-016>038-118-127-128-134-139-239-261000-
NORTH FLORIDA

CITY           SKY/WX    TMP DP  RH WIND       PRES   REMARKS
MARIANNA       CLEAR     70  69  97 CALM      29.90R
TALLAHASSEE    CLEAR     70  69  97 CALM      29.89S
PERRY          CLEAR     71  68  90 CALM      29.90S
LIVE OAK       CLEAR     68  68 100 CALM      29.91S FOG
CROSS CITY     PTCLDY    70  70  98 NE3       29.93S
LAKE CITY      FAIR      63  63 100 CALM      29.90S
GAINESVILLE    CLEAR     68  67  96 CALM      29.92S
WILLISTON      CLEAR     72  72 100 CALM      29.89S FOG
PALATKA        FAIR      68  68 100 CALM      29.89S FOG
MAYPORT NAS    PTCLDY    75  74  96 W5        29.88S
JACKSONVILLE   CLEAR     69  69 100 CALM      29.88S
JAX NAS        CLEAR     73  70  90 W7        29.89S
JAX CECIL      CLEAR     66  66 100 CALM      29.89S
FERNANDINA BEA FAIR      72  68  88 MISG      29.87S
ST AUGUSTINE   CLEAR     72  70  93 W5        29.89S
PALM COAST     FAIR      71  54  55 CALM      29.88S

STATION/POSITION SKY/WX   TEMP    WIND        PRES    WAVE   SWELL
                          AIR SEA DIR/SP/G            HT/PER HT/PER
                          (F)     (DEG/KT/KT) (MB)    (FT/S) (FT/S)
SHELL POINT      NOT AVBL
KEATON BEACH               73      40/  4/  6 1011.5S
CEDAR KEY                  77      40/  4/  5 1012.1R
FERNANDINA                 74 82  290/  3/  4 1012.7R
30.7N   81.3W                 81                N/A     4/13   2/13
MAYPORT                    75 82  290/  5/  6 1012.1S
31.4N   80.9W              78 80  310/ 12/ 14 1010.9F   4/13   3/13
ST AUGUSTINE               74 82  310/  4/  5 1011.8F

$$
FLZ040-043>046-052-053-057-058-063-144-261000-
INTERIOR CENTRAL FLORIDA

CITY           SKY/WX    TMP DP  RH WIND       PRES   REMARKS
OCALA          CLEAR     70  69  97 CALM      29.89S
THE VILLAGES     N/A     73  73 100 CALM      29.79S
LEESBURG       PTCLDY    75  72  90 MISG      29.89S
SANFORD        PTCLDY    74  71  91 NW5       29.87F
ORLANDO EXEC   PTCLDY    77  73  87 CALM      29.88S
ORLANDO INTL   MOCLDY    74  73  97 CALM      29.88S
KISSIMMEE      PTCLDY    76  73  91 CALM      29.89S
WINTER HAVEN   CLEAR     76  72  87 CALM      29.89S
LAKELAND       CLEAR     73  73 100 CALM      29.88S
SEBRING        FAIR      77  75  92 CALM      29.87R
OKEECHOBEE     MOCLDY    77  75  94 CALM      29.85S

$$
FLZ041-047-054-059-064-141-147-261000-
EAST CENTRAL FLORIDA

CITY           SKY/WX    TMP DP  RH WIND       PRES   REMARKS
DAYTONA BEACH  PTCLDY    72  71  97 SW3       29.88S
DELAND         CLEAR     72  72 100 NW3       29.88S
JFK SPACE CTR  MOCLDY    74  73  96 NW3       29.86S
CAPE CANAVERAL MOCLDY    77  73  88 CALM      29.86S
PATRICK AFB    MOCLDY    78  75  92 NW5       29.85F
MELBOURNE      CLOUDY    77  74  90 NW3       29.86F
VERO BEACH     CLOUDY    76  75  97 N5        29.85F
FT PIERCE      CLOUDY    78  77  96 CALM      29.85F
STUART         CLOUDY    81  79  94 CALM      29.86S

STATION/POSITION SKY/WX   TEMP    WIND        PRES    WAVE   SWELL
                          AIR SEA DIR/SP/G            HT/PER HT/PER
                          (F)     (DEG/KT/KT) (MB)    (FT/S) (FT/S)
28.5N   80.2W              81 84  310/  8/ 10 1012.3F   7/11   7/11
28.9N   78.5W                     310/ 10/ 12 1010.0R   9/11   8/11
TRIDENT PIER               78 83  260/  4/  6 1012.9F
28.4N   80.5W                 83                N/A     3/13   2/13
27.5N   80.2W                 83                N/A     6/13   5/13

$$
FLZ050-056-061-142-242-148-248-149-249-151-251-155-255-
160-260-261000-
WEST CENTRAL FLORIDA

CITY           SKY/WX    TMP DP  RH WIND       PRES   REMARKS
CRYSTAL RIVER  FAIR      72  70  94 CALM      29.88S
INVERNESS      FAIR      72  72 100 CALM      29.89R
BROOKSVILLE    CLEAR     72  71  97 CALM      29.89R
CLEARWATER AIR FAIR      75  73  94 CALM      29.87S
ST PETE CLEARW CLEAR     78  74  87 CALM      29.87F
TAMPA INTL     PTCLDY    78  72  81 CALM      29.87F
TAMPA EXEC     CLEAR     72  72 100 CALM      29.88S
PLANT CITY     CLEAR     72  72 100 CALM      29.89F
MACDILL AFB    PTCLDY    75  75 100 CALM      29.86F
PETER O KNIGHT CLOUDY    75  73  94 CALM      29.87F
ST PETERSBURG  PTCLDY    81  74  79 CALM      29.85F
SARASOTA       CLEAR     73  73 100 CALM      29.85F
VENICE         FAIR      79  73  83 N5        29.87S

STATION/POSITION SKY/WX   TEMP    WIND        PRES    WAVE   SWELL
                          AIR SEA DIR/SP/G            HT/PER HT/PER
                          (F)     (DEG/KT/KT) (MB)    (FT/S) (FT/S)
27.3N   84.2W                 83                N/A     1
CLEARWATER BEACH           79 85  110/  3/  5 1011.7F
MIDDLE TAMPA BAY           81      20/  5/  6 1011.4F
VENICE                     79 85   20/  5/  6 1011.3F

$$
FLZ066-069-070-075>078-162-262-165-265-261000-
SOUTHWEST FLORIDA AND KEYS

CITY           SKY/WX    TMP DP  RH WIND       PRES   REMARKS
PUNTA GORDA    CLEAR     78  73  84 NW3       29.88S
FT MYERS       MOCLDY    80  78  94 N5        29.85S
SOUTHWEST INTL CLOUDY    79  76  90 CALM      29.86S
NAPLES         CLOUDY    76  75  97 NE7       29.86R THUNDER
IMMOKALEE      FAIR      77  77 100 CALM      29.87S
MARATHON       CLOUDY    80  76  87 CALM      29.85F
KEY WEST NAS   CLEAR     85  77  77 MISG      29.85S HX  95
KEY WEST INTL  PTCLDY    83  75  77 S6        29.85F

STATION/POSITION SKY/WX   TEMP    WIND        PRES    WAVE   SWELL
                          AIR SEA DIR/SP/G            HT/PER HT/PER
                          (F)     (DEG/KT/KT) (MB)    (FT/S) (FT/S)
NAPLES                        87   30/  3/  7 1011.0R
DRY TORTUGAS               83     220/  2/  4 1010.6F
SAND KEY                   82                 1011.3F

$$
FLZ067-068-071>074-168-172>174-261000-
SOUTHEAST FLORIDA

CITY           SKY/WX    TMP DP  RH WIND       PRES   REMARKS
W PALM BEACH   MOCLDY    79  76  90 W3        29.85S
FT LAUDER-EXEC CLOUDY    81  76  84 CALM      29.85S
FT LAUDERDALE  CLOUDY    82  76  81 SW3       29.84F
POMPANO BEACH  CLOUDY    80  75  84 SW3       29.85S
PEMBROKE PINES CLOUDY    82  75  79 CALM      29.86F
OPA LOCKA      CLOUDY    81  77  88 SE3       29.86S
MIAMI          CLOUDY    82  78  88 CALM      29.86S
WEST KENDALL   CLOUDY    80  76  87 NW5       29.86R
HOMESTEAD      LGT RAIN  77  77 100 SW10      29.86S

STATION/POSITION SKY/WX   TEMP    WIND        PRES    WAVE   SWELL
                          AIR SEA DIR/SP/G            HT/PER HT/PER
                          (F)     (DEG/KT/KT) (MB)    (FT/S) (FT/S)
PORT EVERGLADES            83     220/  3/  4 1010.8
VIRGINIA KEY               83 86  280/  2/  3 1010.5S
LAKE WORTH                 80 85  260/  5/  7 1011.7S
FOWEY ROCKS                83 85  200/  7/  9 1011.7R
SETTLEMENT POINT           84     230/ 11/ 12 1011.1S

$$





USA.gov is the U.S. government's official web portal to all federal, state and local government web resources and services.